FW6147 Weather Reports


time (UTC)temp
F
wind
direction
speed
knots
gust
knots
rain 1hr
in
rain 24hr
in
rain mn
in
humidity
%
barometer
mb
20260904215058 82 320 4.3 7.8 0.00 0.00 0.00 55 1019.7
20260904214600 81 348 1.7 6.1 0.00 0.00 0.00 57 1019.8
20260904214056 80 291 3.5 6.1 0.00 0.00 0.00 58 1019.8
20260904213555 80 300 3.5 6.1 0.00 0.00 0.00 57 1019.9
20260904213109 80 315 3.5 6.1 0.00 0.00 0.00 59 1019.9
20260904212555 80 327 2.6 7.0 0.00 0.00 0.00 60 1020.1
20260904212055 80 295 2.6 7.0 0.00 0.00 0.00 59 1020.1
20260904211601 80 317 3.5 7.0 0.00 0.00 0.00 61 1020.1
20260904211055 81 288 3.5 11.3 0.00 0.00 0.00 60 1020.2
20260904210556 81 303 6.1 11.3 0.00 0.00 0.00 58 1020.2
20260904210104 81 290 5.2 8.7 0.00 0.00 0.00 56 1020.3
20260904205554 82 290 6.1 9.6 0.00 0.00 0.00 55 1020.3
20260904205055 83 283 4.3 9.6 0.00 0.00 0.00 53 1020.4
20260904204604 83 328 6.1 9.6 0.00 0.00 0.00 52 1020.3
20260904204059 84 359 0.9 2.6 0.00 0.00 0.00 48 1020.2
20260904203554 83 53 0.0 3.5 0.00 0.00 0.00 49 1020.3
20260904203104 83 53 1.7 5.2 0.00 0.00 0.00 48 1020.4
20260904202556 84 30 1.7 5.2 0.00 0.00 0.00 48 1020.4
20260904202054 84 27 2.6 5.2 0.00 0.00 0.00 48 1020.5
20260904201558 84 32 2.6 4.3 0.00 0.00 0.00 49 1020.5
20260904201054 83 30 1.7 4.3 0.00 0.00 0.00 51 1020.6
20260904200555 82 25 1.7 4.3 0.00 0.00 0.00 52 1020.7
20260904200105 82 355 1.7 4.3 0.00 0.00 0.00 52 1020.9
20260904195554 82 355 2.6 5.2 0.00 0.00 0.00 53 1020.9
20260904195059 82 360 2.6 5.2 0.00 0.00 0.00 53 1021.0
20260904194634 82 2 2.6 4.3 0.00 0.00 0.00 53 1021.0
20260904194055 82 356 1.7 4.3 0.00 0.00 0.00 52 1021.0
20260904193556 82 356 1.7 6.1 0.00 0.00 0.00 53 1021.1
20260904193103 82 348 2.6 6.1 0.00 0.00 0.00 52 1021.2
20260904192600 83 323 2.6 5.2 0.00 0.00 0.00 52 1021.4
20260904192056 83 299 1.7 5.2 0.00 0.00 0.00 52 1021.5
20260904191602 83 23 2.6 4.3 0.00 0.00 0.00 52 1021.5
20260904191054 82 32 1.7 4.3 0.00 0.00 0.00 55 1021.5
20260904190555 82 30 1.7 3.5 0.00 0.00 0.00 54 1021.5
20260904185555 81 0 1.7 4.3 0.00 0.00 0.00 54 1021.8
20260904185055 81 29 1.7 4.3 0.00 0.00 0.00 54 1021.8
20260904184604 82 65 0.9 3.5 0.00 0.00 0.00 54 1022.0
20260904184055 82 65 0.9 3.5 0.00 0.00 0.00 54 1022.0
20260904183555 81 0 0.9 3.5 0.00 0.00 0.00 54 1022.0
20260904183116 81 0 0.0 4.3 0.00 0.00 0.00 55 1022.0
20260904182556 81 46 2.6 6.1 0.00 0.00 0.00 55 1022.1
20260904182052 82 274 1.7 6.1 0.00 0.00 0.00 54 1022.1
20260904181610 82 0 1.7 5.2 0.00 0.00 0.00 55 1022.1
20260904181053 81 13 3.5 5.2 0.00 0.00 0.00 57 1022.1
20260904180554 80 356 2.6 4.3 0.00 0.00 0.00 59 1022.3
20260904180106 80 358 0.9 6.1 0.00 0.00 0.00 57 1022.3
20260904175555 80 359 0.9 6.1 0.00 0.00 0.00 57 1022.3
20260904175051 81 244 2.6 6.1 0.00 0.00 0.00 56 1022.3
20260904174604 81 189 0.9 4.3 0.00 0.00 0.00 56 1022.2
20260904174051 81 243 1.7 4.3 0.00 0.00 0.00 57 1022.3
20260904173552 80 292 1.7 4.3 0.00 0.00 0.00 57 1022.3
20260904173059 80 0 0.0 7.0 0.00 0.00 0.00 57 1022.4
20260904172555 80 304 3.5 7.0 0.00 0.00 0.00 57 1022.5
20260904172051 80 332 2.6 7.0 0.00 0.00 0.00 58 1022.4
20260904171621 81 47 2.6 7.8 0.00 0.00 0.00 56 1022.5
20260904171051 81 319 2.6 7.8 0.00 0.00 0.00 56 1022.6
20260904170550 81 312 4.3 7.8 0.00 0.00 0.00 56 1022.6
20260904170105 81 20 3.5 6.1 0.00 0.00 0.00 57 1022.6
20260904165552 81 352 2.6 6.1 0.00 0.00 0.00 59 1022.6
20260904165052 80 353 2.6 6.1 0.00 0.00 0.00 58 1022.6
20260904164608 80 284 0.9 4.3 0.00 0.00 0.00 59 1022.6
20260904164052 80 63 1.7 4.3 0.00 0.00 0.00 58 1022.4
20260904163552 80 29 1.7 7.0 0.00 0.00 0.00 60 1022.3
20260904163100 79 327 1.7 7.0 0.00 0.00 0.00 60 1022.4
20260904162554 79 44 1.7 5.2 0.00 0.00 0.00 62 1022.4
20260904162050 79 25 0.9 4.3 0.00 0.00 0.00 61 1022.4
20260904161605 78 58 1.7 4.3 0.00 0.00 0.00 61 1022.4
20260904161050 78 31 1.7 4.3 0.00 0.00 0.00 62 1022.4
20260904160552 78 14 2.6 4.3 0.00 0.00 0.00 64 1022.4
20260904160107 77 18 0.9 3.5 0.00 0.00 0.00 64 1022.4
20260904155551 77 18 1.7 3.5 0.00 0.00 0.00 65 1022.4
20260904155056 76 18 1.7 4.3 0.00 0.00 0.00 66 1022.4
20260904154604 76 18 0.9 5.2 0.00 0.00 0.00 69 1022.4
20260904154052 76 18 1.7 5.2 0.00 0.00 0.00 71 1022.5
20260904153552 76 18 0.9 3.5 0.00 0.00 0.00 73 1022.5
20260904153109 75 14 0.9 3.5 0.00 0.00 0.00 73 1022.4
20260904152551 74 14 0.9 2.6 0.00 0.00 0.00 73 1022.3
20260904152057 74 14 0.9 2.6 0.00 0.00 0.00 75 1022.4
20260904151606 73 14 0.9 2.6 0.00 0.00 0.00 77 1022.3
20260904151055 73 0 0.0 2.6 0.00 0.00 0.00 79 1022.3
20260904150555 72 14 0.9 2.6 0.00 0.00 0.00 80 1022.3
20260904145559 71 14 0.0 3.5 0.00 0.00 0.00 84 1022.3
20260904145057 71 14 1.7 3.5 0.00 0.00 0.00 85 1022.3
20260904144604 70 14 0.9 2.6 0.00 0.00 0.00 87 1022.3
20260904144054 69 14 0.9 2.6 0.00 0.00 0.00 87 1022.3
20260904143555 69 14 0.9 2.6 0.00 0.00 0.00 89 1022.2
20260904143136 69 14 0.0 1.7 0.00 0.00 0.00 90 1022.1
20260904142558 68 0 0.0 1.7 0.00 0.00 0.00 91 1022.1
20260904142056 67 14 0.0 0.9 0.00 0.00 0.00 91 1022.0
20260904141609 67 0 0.0 1.7 0.00 0.00 0.00 92 1022.1
20260904141054 67 0 0.0 1.7 0.00 0.00 0.00 92 1021.9
20260904140555 66 0 0.0 1.7 0.00 0.00 0.00 92 1021.9
20260904140104 66 14 0.0 2.6 0.00 0.00 0.00 93 1021.9
20260904135557 65 0 0.0 2.6 0.00 0.00 0.00 93 1021.9
20260904135055 65 14 0.0 1.7 0.00 0.00 0.00 93 1021.8
20260904134607 64 0 0.0 1.7 0.00 0.00 0.00 93 1021.7
20260904134100 64 0 0.9 1.7 0.00 0.00 0.00 92 1021.6
20260904133554 63 14 0.9 1.7 0.00 0.00 0.00 93 1021.6
20260904133105 63 0 0.0 1.7 0.00 0.00 0.00 92 1021.6
20260904132556 63 14 0.9 1.7 0.00 0.00 0.00 92 1021.5
20260904132054 63 0 0.0 1.7 0.00 0.00 0.00 92 1021.5
20260904131613 62 14 0.0 1.7 0.00 0.00 0.00 92 1021.5
20260904131054 62 14 0.0 0.9 0.00 0.00 0.00 92 1021.5
20260904130555 62 0 0.0 1.7 0.00 0.00 0.00 91 1021.4
20260904130104 62 0 0.0 1.7 0.00 0.00 0.00 91 1021.2
20260904125555 62 14 0.0 1.7 0.00 0.00 0.00 91 1021.2
20260904125056 62 14 0.0 1.7 0.00 0.00 0.00 91 1021.0
20260904124606 63 0 0.0 0.9 0.00 0.00 0.00 92 1021.1
20260904124056 63 14 0.0 0.0 0.00 0.00 0.00 91 1021.0
20260904123554 63 0 0.0 0.0 0.00 0.00 0.00 91 1021.0
20260904123104 63 0 0.0 0.0 0.00 0.00 0.00 91 1021.0
20260904122554 63 0 0.0 0.0 0.00 0.00 0.00 91 1021.0
20260904122054 63 0 0.0 0.0 0.00 0.00 0.00 91 1020.9
20260904121601 63 0 0.0 0.0 0.00 0.00 0.00 91 1020.8
20260904121221 63 0 0.0 1.7 0.00 0.00 0.00 91 1020.7
20260904120555 63 0 0.0 1.7 0.00 0.00 0.00 91 1020.6
20260904120109 63 14 0.0 2.6 0.00 0.00 0.00 91 1020.7
20260904115554 63 0 0.9 2.6 0.00 0.00 0.00 91 1020.6
20260904115055 63 14 0.9 2.6 0.00 0.00 0.00 91 1020.6
20260904114610 64 14 0.0 0.9 0.00 0.00 0.00 91 1020.5
20260904114054 64 0 0.0 1.7 0.00 0.00 0.00 91 1020.4
20260904113555 64 0 0.0 1.7 0.00 0.00 0.00 91 1020.4
20260904113103 64 0 0.9 2.6 0.00 0.00 0.00 91 1020.4
20260904112554 64 14 0.9 2.6 0.00 0.00 0.00 91 1020.4
20260904112054 63 14 0.9 2.6 0.00 0.00 0.00 90 1020.3
20260904111604 64 15 0.9 2.6 0.00 0.00 0.00 90 1020.4
20260904111055 64 18 0.9 2.6 0.00 0.00 0.00 90 1020.5
20260904110554 64 18 0.0 1.7 0.00 0.00 0.00 90 1020.4
20260904110116 64 0 0.0 0.0 0.00 0.00 0.00 90 1020.6
20260904105557 64 0 0.0 0.0 0.00 0.00 0.00 90 1020.5
20260904105057 64 0 0.0 0.0 0.00 0.00 0.00 90 1020.5
20260904104604 64 0 0.0 0.0 0.00 0.00 0.00 90 1020.4
20260904104055 64 0 0.0 0.0 0.00 0.00 0.00 90 1020.4
20260904103554 64 0 0.0 0.9 0.00 0.00 0.00 89 1020.4
20260904103107 64 0 0.0 0.9 0.00 0.00 0.00 90 1020.4
20260904102555 64 0 0.0 1.7 0.00 0.00 0.00 90 1020.5
20260904102054 65 18 0.0 1.7 0.00 0.00 0.00 89 1020.5
20260904101603 65 18 0.0 1.7 0.00 0.00 0.00 90 1020.4
20260904101057 65 0 0.0 1.7 0.00 0.00 0.00 90 1020.4
20260904100558 65 18 0.0 1.7 0.00 0.00 0.00 90 1020.4
20260904100127 65 0 0.0 2.6 0.00 0.00 0.00 90 1020.4
20260904095554 65 18 0.9 2.6 0.00 0.00 0.00 89 1020.3
20260904095056 65 15 0.9 2.6 0.00 0.00 0.00 89 1020.5
20260904094605 65 342 0.0 1.7 0.00 0.00 0.00 89 1020.4
20260904094055 65 0 0.0 1.7 0.00 0.00 0.00 89 1020.4
20260904093554 65 0 0.0 1.7 0.00 0.00 0.00 89 1020.6
20260904093104 65 342 0.0 1.7 0.00 0.00 0.00 89 1020.5
20260904092558 65 0 0.0 0.0 0.00 0.00 0.00 89 1020.5
20260904092056 66 0 0.0 0.9 0.00 0.00 0.00 89 1020.4
20260904091601 66 0 0.0 1.7 0.00 0.00 0.00 89 1020.4
20260904091055 66 0 0.0 1.7 0.00 0.00 0.00 89 1020.4
20260904090555 66 0 0.0 1.7 0.00 0.00 0.00 89 1020.4
20260904090105 66 342 0.0 1.7 0.00 0.00 0.00 89 1020.6
20260904085557 66 0 0.0 1.7 0.00 0.00 0.00 89 1020.5
20260904085055 66 0 0.0 1.7 0.00 0.00 0.00 88 1020.6
20260904084612 66 0 0.0 0.9 0.00 0.00 0.00 88 1020.5
20260904084058 66 0 0.0 1.7 0.00 0.00 0.00 88 1020.6
20260904083554 66 0 0.0 2.6 0.00 0.00 0.00 88 1020.6
20260904083104 66 342 0.0 2.6 0.00 0.00 0.00 88 1020.6
20260904082554 66 342 0.0 2.6 0.00 0.00 0.00 88 1020.5
20260904082055 66 0 0.9 2.6 0.00 0.00 0.00 87 1020.5
20260904081600 66 0 0.0 2.6 0.00 0.00 0.00 87 1020.6
20260904081054 66 342 0.9 2.6 0.00 0.00 0.00 87 1020.6
20260904080556 67 342 0.0 1.7 0.00 0.00 0.00 86 1020.6
20260904080107 67 342 0.0 3.5 0.00 0.00 0.00 86 1020.7
20260904075556 67 342 0.9 3.5 0.00 0.00 0.00 85 1020.6
20260904075054 67 342 0.9 3.5 0.00 0.00 0.00 85 1020.6
20260904074614 68 336 1.7 3.5 0.00 0.00 0.00 84 1020.6
20260904074055 68 338 1.7 4.3 0.00 0.00 0.00 83 1020.6
20260904073555 68 340 1.7 4.3 0.00 0.00 0.00 82 1020.7
20260904073117 68 348 0.0 3.5 0.00 0.00 0.00 82 1020.7
20260904072555 68 0 0.0 4.3 0.00 0.00 0.00 82 1020.7
20260904072055 68 165 1.7 5.2 0.00 0.00 0.00 82 1020.6
20260904071609 68 160 2.6 5.2 0.00 0.00 0.00 82 1020.6
20260904071055 68 150 3.5 6.1 0.00 0.00 0.00 82 1020.5
20260904070556 68 148 3.5 7.0 0.00 0.00 0.00 82 1020.5
20260904070100 68 136 4.3 7.0 0.00 0.00 0.00 83 1020.5
20260904065554 68 136 3.5 6.1 0.00 0.00 0.00 84 1020.5
20260904065055 68 141 3.5 6.1 0.00 0.00 0.00 84 1020.6
20260904064602 68 136 4.3 6.1 0.00 0.00 0.00 85 1020.5
20260904064055 68 127 3.5 5.2 0.00 0.00 0.00 86 1020.6
20260904063555 67 116 1.7 3.5 0.00 0.00 0.00 86 1020.6
20260904063101 67 116 1.7 4.3 0.00 0.00 0.00 86 1020.5
20260904062555 67 116 2.6 4.3 0.00 0.00 0.00 86 1020.6
20260904062055 67 116 2.6 3.5 0.00 0.00 0.00 86 1020.6
20260904061600 67 116 2.6 3.5 0.00 0.00 0.00 86 1020.8
20260904061056 67 115 1.7 4.3 0.00 0.00 0.00 86 1020.6
20260904060556 67 116 2.6 4.3 0.00 0.00 0.00 86 1020.6
20260904060113 67 115 2.6 3.5 0.00 0.00 0.00 85 1020.7
20260904055554 68 58 0.0 1.7 0.00 0.00 0.00 85 1020.6
20260904055055 68 0 0.0 1.7 0.00 0.00 0.00 85 1020.5
20260904054606 68 0 0.0 1.7 0.00 0.00 0.00 85 1020.5
20260904054055 68 0 0.0 0.9 0.00 0.00 0.00 85 1020.6
20260904053555 68 0 0.0 0.9 0.00 0.00 0.00 85 1020.6
20260904053105 69 0 0.0 2.6 0.00 0.00 0.00 84 1020.7
20260904052555 69 0 0.0 2.6 0.00 0.00 0.00 84 1020.6
20260904052055 69 0 0.0 0.0 0.00 0.00 0.00 84 1020.6
20260904051601 69 0 0.0 0.0 0.00 0.00 0.00 84 1020.7
20260904051055 69 0 0.0 0.0 0.00 0.00 0.00 84 1020.7
20260904050554 69 0 0.0 0.0 0.00 0.00 0.00 84 1020.7
20260904050105 69 0 0.0 0.0 0.00 0.00 0.00 84 1020.9
20260904045555 69 0 0.0 0.0 0.00 0.00 0.00 83 1021.0
20260904045054 69 0 0.0 0.0 0.00 0.00 0.00 84 1021.2
20260904044600 70 0 0.0 0.0 0.00 0.00 0.00 83 1021.3
20260904044056 70 0 0.0 0.0 0.00 0.00 0.00 83 1021.3
20260904043554 70 0 0.0 0.0 0.00 0.00 0.00 83 1021.1
20260904043107 70 0 0.0 0.0 0.00 0.00 0.00 83 1021.1
20260904042559 70 0 0.0 0.0 0.00 0.00 0.00 83 1021.2
20260904042054 70 0 0.0 0.0 0.00 0.00 0.00 82 1021.2
20260904041606 70 0 0.0 0.0 0.00 0.00 0.00 81 1021.3
20260904041055 71 0 0.0 0.0 0.00 0.00 0.00 82 1021.1
20260904040555 70 0 0.0 0.0 0.00 0.00 0.00 82 1021.2
20260904040104 70 0 0.0 0.0 0.00 0.00 0.00 81 1021.1
20260904035555 70 0 0.0 0.0 0.00 0.00 0.00 82 1021.0
20260904035054 70 0 0.0 0.0 0.00 0.00 0.00 82 1021.0
20260904034600 70 0 0.0 0.0 0.00 0.00 0.00 82 1021.0
20260904034055 70 0 0.0 0.0 0.00 0.00 0.00 82 1021.0
20260904033555 70 0 0.0 0.0 0.00 0.00 0.00 82 1021.0
20260904033105 70 0 0.0 0.0 0.00 0.00 0.00 83 1021.0
20260904032554 70 0 0.0 0.0 0.00 0.00 0.00 83 1020.8
20260904032055 70 0 0.0 1.7 0.00 0.00 0.00 82 1020.7
20260904031603 70 0 0.0 2.6 0.00 0.00 0.00 82 1020.6
20260904031056 70 58 0.9 2.6 0.00 0.00 0.00 82 1020.6
20260904030555 70 58 1.7 2.6 0.00 0.00 0.00 82 1020.4
20260904030105 70 23 0.0 2.6 0.00 0.00 0.00 82 1020.2
20260904025557 70 0 0.0 0.0 0.00 0.00 0.00 82 1020.2
20260904025057 70 0 0.0 0.0 0.00 0.00 0.00 82 1020.2
20260904024602 70 0 0.0 2.6 0.00 0.00 0.00 82 1020.1
20260904024056 70 0 0.0 2.6 0.00 0.00 0.00 82 1020.1
20260904023554 70 1 0.9 2.6 0.00 0.00 0.00 82 1020.0
20260904023105 70 0 0.0 3.5 0.00 0.00 0.00 81 1019.9
20260904022555 71 1 0.9 3.5 0.00 0.00 0.00 80 1019.9
20260904022055 71 1 1.7 3.5 0.00 0.00 0.00 79 1019.9
20260904021606 71 359 0.0 2.6 0.00 0.00 0.00 79 1019.6
20260904021054 71 0 0.0 0.0 0.00 0.00 0.00 78 1019.7
20260904020557 71 0 0.0 0.0 0.00 0.00 0.00 78 1019.8
20260904020101 71 0 0.0 0.0 0.00 0.00 0.00 79 1019.7
20260904015555 71 0 0.0 0.0 0.00 0.00 0.00 78 1019.6
20260904015055 72 0 0.0 0.0 0.00 0.00 0.00 78 1019.6
20260904014608 72 0 0.0 0.0 0.00 0.00 0.00 78 1019.5
20260904014055 72 0 0.0 0.0 0.00 0.00 0.00 78 1019.4
20260904013556 72 0 0.0 0.0 0.00 0.00 0.00 78 1019.5
20260904013114 72 0 0.0 2.6 0.00 0.00 0.00 78 1019.5
20260904012555 72 0 0.0 4.3 0.00 0.00 0.00 78 1019.6
20260904012055 72 359 0.9 5.2 0.00 0.00 0.00 77 1019.5
20260904011601 73 360 0.9 5.2 0.00 0.00 0.00 77 1019.5
20260904011053 73 360 2.6 5.2 0.00 0.00 0.00 76 1019.5
20260904010554 73 333 1.7 2.6 0.00 0.00 0.00 75 1019.5
20260904010107 74 0 0.0 1.7 0.00 0.00 0.00 74 1019.3
20260904005554 74 0 0.0 2.6 0.00 0.00 0.00 74 1019.3
20260904005055 74 333 0.9 3.5 0.00 0.00 0.00 73 1019.6
20260904004603 75 333 0.9 3.5 0.00 0.00 0.00 71 1019.5
20260904004056 75 330 0.9 3.5 0.00 0.00 0.00 70 1019.5
20260904003555 76 311 1.7 7.0 0.00 0.00 0.00 69 1019.5
20260904003116 76 296 2.6 7.8 0.00 0.00 0.00 68 1019.4
20260904002554 76 314 4.3 9.6 0.00 0.00 0.00 66 1019.3
20260904002055 77 273 6.1 9.6 0.00 0.00 0.00 64 1019.4
20260904001605 79 289 4.3 9.6 0.00 0.00 0.00 59 1019.5
20260904001055 80 0 0.9 6.1 0.00 0.00 0.00 56 1019.3
20260904000555 80 290 2.6 6.1 0.00 0.00 0.00 56 1019.2
20260904000104 78 273 1.7 5.2 0.00 0.00 0.00 58 1019.2
20260903235555 76 254 2.6 5.2 0.00 0.00 0.00 63 1019.1
20260903235052 75 248 2.6 7.8 0.00 0.00 0.00 64 1019.1
20260903234604 75 252 1.7 7.8 0.00 0.00 0.00 64 1019.0
20260903234056 75 260 3.5 7.8 0.00 0.00 0.00 66 1019.1
20260903233556 76 241 2.6 11.3 0.00 0.00 0.00 69 1019.2
20260903233103 75 257 1.7 11.3 0.00 0.00 0.00 69 1019.4
20260903232552 75 295 6.1 13.0 0.00 0.00 0.00 69 1019.2
20260903232055 74 301 7.0 13.0 0.00 0.00 0.00 68 1019.2
20260903231600 75 344 7.0 11.3 0.00 0.00 0.00 71 1019.2
20260903231054 75 319 6.1 10.4 0.00 0.00 0.00 70 1019.1
20260903230556 75 288 5.2 11.3 0.00 0.00 0.00 69 1019.1
20260903230107 75 319 7.0 11.3 0.00 0.00 0.00 67 1019.0
20260903225553 76 295 4.3 9.6 0.00 0.00 0.00 67 1019.1
20260903225052 76 295 6.1 8.7 0.00 0.00 0.00 68 1019.1
20260903224610 75 276 4.3 10.4 0.00 0.00 0.00 68 1019.2
20260903224055 75 313 4.3 10.4 0.00 0.00 0.00 67 1019.1
20260903223557 75 300 6.1 8.7 0.00 0.00 0.00 69 1019.3
20260903223104 76 285 6.1 8.7 0.00 0.00 0.00 69 1019.2
20260903222553 76 296 2.6 6.1 0.00 0.00 0.00 71 1019.1
20260903222053 76 258 1.7 6.1 0.00 0.00 0.00 76 1019.0
20260903221604 74 235 0.9 6.1 0.00 0.00 0.00 76 1019.1
20260903221054 74 243 2.6 6.1 0.00 0.00 0.00 74 1018.8
20260903220554 75 255 3.5 6.1 0.00 0.00 0.00 72 1018.8
20260903220120 77 285 2.6 5.2 0.00 0.00 0.00 70 1018.8
20260903215556 78 248 2.6 4.3 0.00 0.00 0.00 68 1019.1